www.pogodaiklimat.ru

Погода и климат >> Архив погоды >> Россия >> Краснодарский край >> Геленджик


АРХИВ ПОГОДЫ в Геленджике

Время (UTC), дата Ветер
(напр.,м/с)
 
Видим.   Явления Облачность Т
(С)
Тd
(С)
f
(%)
Тe
(С)
Тes
(С)
Комфортность P
(гПа)
Po
(гПа)
Тmin
(С)
Tmax
(С)
R
(мм)
R24
(мм)
S
(см)
06 17.05 В 3 50 км ясно +23.3 +14.2 57 +27 +35 душно 1011.3 1009.4
09 17.05 ЮВ 2 50 км 3/0
[Ci fib]
+21.3 +16.0 72 +25 +42 комфорт 1012.0 1010.1
12 17.05 ЮЗ 1 50 км 3/0
[Ci fib]
+20.6 +16.1 75 +25 +39 комфорт 1010.7 1008.8
15 17.05 ЮЗ 1 50 км 8/0
[Cc]
+21.2 +14.7 66 +24 +26 комфорт 1008.8 1006.9 +23.6
18 17.05 СВ 1 10 км ясно +23.6 +12.6 50 +26 +26 жарко 1007.3 1005.4
21 17.05 Ю 1 10 км ясно +19.3 +16.1 82 +22 +22 комфорт 1007.0 1005.1
00 18.05 В 1 10 км 4/3 600 м
[Cu hum Ci fib]
+17.7 +15.2 85 +19 +19 тепло 1005.8 1003.9
03 18.05 СВ 1 20 км 10/4 600 м
[Sc diur, vesp Ac cast Cs]
+20.0 +15.4 75 +23 +24 комфорт 1005.7 1003.8 +17.4
06 18.05 С 2 50 км 10/10 1000 м
[Sc]
+21.6 +17.1 76 +26 +26 душно 1005.7 1003.8
09 18.05 Ю 2 50 км 6/3 600 м
[Sc Ac trans Cc]
+22.8 +17.1 70 +28 +38 душно 1005.9 1004.0
12 18.05 ЮВ 2 50 км 4/0
[Ac trans Cc]
+27.7 +13.3 41 +29 +40 жарко 1005.0 1003.2
15 18.05 СВ 6 50 км 8/3 600 м
[Sc diur, vesp Ac trans Cc]
+28.2 1002.7 1000.8 +29.5
18 18.05 ЮВ 3
{14}
10 км 10/3 600 м
[Sc Ac trans Cc]
+22.3 +17.5 74 +27 +27 душно 1003.9 1002.2
21 18.05 ЮВ 4 10 км 10/10 600 м
[Sc]
+20.4 +16.5 78 +24 +24 комфорт 1003.8 1002.1
00 19.05 н/о н/о
03 19.05 В 4 50 км 6/3 600 м
[Cb cap Ac trans Cc]
+19.0 +17.9 93 +21 +21 комфорт 1006.1 1004.4 +18.5
06 19.05 СВ 1 20 км 10/8 600 м
[Cu Sc Ac trans]
+20.2 +17.7 86 +25 +25 комфорт 1008.2 1006.3
09 19.05 ЮВ 3 20 км {ливн. осадки} 10/10 600 м
[Cb cap]
+18.8 +17.4 92 +20 +20 тепло 1010.4 1008.5
12 19.05 ЮВ 1 20 км {ливн. осадки} 10/10 600 м
[Cb cap]
+19.5 +16.5 83 +23 +23 комфорт 1011.2 1009.3
15 19.05 В 1 20 км 10/10 600 м
[Cb cap]
+19.3 +16.0 81 +22 +22 комфорт 1011.9 1010.0 +20.8 0.2
18 19.05 ЮВ 1 10 км 10/10 1000 м
[Cu Sc]
+18.7 +15.2 80 +21 +21 комфорт 1012.5 1010.6
21 19.05 СВ 1 10 км 10/10 1000 м
[Sc]
+17.6 +15.9 90 +19 +19 тепло 1013.0 1011.1
00 20.05 ЮВ 1 10 км 10/10 1000 м
[Sc]
+17.8 +16.0 89 +19 +19 тепло 1013.9 1012.0
03 20.05 штиль 0 20 км 10/10 300 м
[Sc]
+17.4 +16.4 94 +17 +17 тепло 1014.2 1012.3 +17.2 0.1
06 20.05 ЮЗ 1 20 км 10/10 600 м
[Cb cap]
+19.7 +16.5 82 +23 +23 комфорт 1015.2 1013.3
09 20.05 штиль 0 20 км 10/10 600 м
[Cb cap]
+19.4 +16.6 84 +21 +21 комфорт 1016.4 1014.5
12 20.05 З 1 20 км 10/4 600 м
[Sc Ac trans Cc]
+20.1 +17.1 83 +24 +29 комфорт 1016.6 1014.7
15 20.05 З 1 20 км 4/3 300 м
[Sc Cc]
+19.5 +16.5 83 +23 +25 комфорт 1015.6 1013.7 +21.2
18 20.05 СВ 2 10 км 3/3 600 м
[Sc]
+19.2 +15.5 79 +21 +21 комфорт 1015.6 1013.7
21 20.05 ЮЗ 1 10 км ясно +18.2 +15.2 83 +20 +20 тепло 1015.8 1013.9
00 21.05 СВ 1 10 км ясно +16.3 +15.4 94 +17 +17 тепло 1015.8 1013.9
03 21.05 СВ 1 50 км 6/6 600 м
[Sc]
+16.5 +15.5 94 +17 +18 тепло 1016.3 1014.4 +15.4
06 21.05 З 1 20 км 10/10 600 м
[Sc]
+19.1 +16.0 82 +22 +22 комфорт 1017.6 1015.7
09 21.05 С 1 50 км 8/3 600 м
[Cu med, cong Cc]
+22.0 +16.8 72 +26 +39 душно 1017.0 1015.1
12 21.05 ЮЗ 1 50 км 10/3 600 м
[Cu med, cong Ac trans Cc]
+21.7 +16.8 74 +26 +31 душно 1017.2 1015.3
15 21.05 штиль 0 50 км 10/4 600 м
[Cu med, cong Ac As]
+19.8 +16.2 80 +22 +23 комфорт 1015.7 1013.8 +22.4
18 21.05 С 1 10 км 10/0
[Ac As]
+18.4 +15.8 85 +20 +20 тепло 1015.1 1013.2
21 21.05 штиль 0 10 км 8/0
[Cc]
+17.3 +16.2 93 +17 +17 тепло 1014.3 1012.4
00 22.05 СВ 1 10 км 10/10 600 м
[Sc]
+17.2 +16.4 95 +18 +18 тепло 1012.9 1011.0
03 22.05 штиль 0 20 км 10/10 300 м
[Cu Sc]
+18.3 +17.3 94 +19 +19 тепло 1014.2 1012.3 +16.4
06 22.05 С 1 10 км слаб. ливневой дождь 10/10 300 м
[Cb cap]
+17.2 +16.2 94 +18 +18 тепло 1014.3 1012.4
09 22.05 ЮВ 2 20 км {ливн. осадки} 9/3 600 м
[Sc Cc]
+21.0 +16.7 76 +25 +36 комфорт 1014.3 1012.4
12 22.05 ЮВ 3 50 км {ливн. осадки} 3/3 600 м
[Cu hum]
+21.0 +17.2 79 +25 +33 комфорт 1014.7 1012.8
15 22.05 ЮВ 1 50 км 3/3 600 м
[Sc]
+20.4 +16.5 78 +25 +27 комфорт 1014.2 1012.3 +22.4 3
18 22.05 ЮВ 2 10 км 9/9 600 м
[Sc]
+19.1 +16.0 82 +21 +21 комфорт 1014.6 1012.7
21 22.05 ЮВ 2 10 км 6/6 600 м
[Sc]
+18.8 +15.4 81 +20 +20 тепло 1014.2 1012.3
00 23.05 ЮВ 1 10 км 10/10 600 м
[Sc]
+18.4 +15.1 81 +20 +20 тепло 1013.6 1011.7
03 23.05 В 1 50 км 4/4 600 м
[Sc]
+18.0 +15.4 85 +19 +20 тепло 1013.3 1011.4 +17.7
06 23.05 ЮВ 1 50 км 6/4 1000 м
[Cu hum Ac As Cc]
+20.3 +15.0 72 +24 +30 комфорт 1013.4 1011.5
09 23.05 ЮВ 3 50 км 4/3 1000 м
[Cu Sc Ac trans Cc]
+21.3 +15.4 69 +24 +35 комфорт 1013.5 1011.6
12 23.05 ЮВ 2 50 км 4/3 1000 м
[Cu hum Ac As Cc]
+21.2 +15.7 71 +24 +33 комфорт 1013.3 1011.4
15 23.05 ЮВ 3 50 км 3/3 1000 м
[Cu hum Ci fib]
+20.8 +16.8 78 +25 +26 комфорт 1012.4 1010.5 +22.4
18 23.05 ЮВ 4 10 км 8/6 600 м
[Cu Sc Ac trans]
+19.8 +16.2 80 +22 +22 комфорт 1012.8 1010.9
21 23.05 ЮВ 2 10 км 6/6 600 м
[Sc]
+19.5 +19.6 100 +23 +23 комфорт 1012.3 1010.4
00 24.05 ЮВ 2 10 км 6/6 600 м
[Sc]
+19.3 +16.7 85 +22 +22 комфорт 1011.7 1009.8
03 24.05 В 1 20 км 3/3 600 м
[Cu Sc]
+19.3 +16.5 84 +22 +23 комфорт 1011.3 1009.4 +19.3

 

Местоположение метеостанции Геленджик (Краснодарский край, Россия): широта 44.57 долгота 38.08 высота над уровнем моря 15 м.

В архиве по умолчанию представлена погода в Геленджике за последнюю неделю. Архивные данные за месяц целиком и за предыдущие месяцы, начиная с января 2011 года, Вы можете получить, выбрав интересующий диапазон дат из раскрывающегося списка и нажав кнопку "Ввод!".


*Определитесь, кто Вы:
робот инопланетянин человек

Внимание! Время в таблицах - всемирное. Для получения местного времени необходимо прибавить поправку, которая равна 3 ч.

Смотрите также архив погоды в соседних городах и на ближайших метеорологических станциях:

Погода в Новороссийске (Краснодарский край, Россия) (25 км)
Погода в Крымске (Краснодарский край, Россия) (39 км)
Погода в Джубге (Краснодарский край, Россия) (57 км)
Погода в Анапе (Краснодарский край, Россия) (72 км)
Погода в Славянске-на-Кубани (Краснодарский край, Россия) (79 км)
Погода в Горячем Ключе (Краснодарский край, Россия) (81 км)
Погода в Краснодаре (Краснодарский край, Россия) (92 км)
Погода в Туапсе (Краснодарский край, Россия) (95 км)
Погода в Горном (Краснодарский край, Россия) (100 км)
Погода в Темрюке (Краснодарский край, Россия) (100 км)

Пояснения к столбцам:

Ветер - указаны скорость ветра в м/с - средняя за 10 мин, порывы в срок и между сроками (в фигурных скобках) и направление, откуда дует ветер: С - северный, СВ - северо-восточный, В - восточный, ЮВ - юго-восточный, Ю - южный, ЮЗ - юго-западный, З - западный, СЗ - северо-западный.
Видимость - горизонтальная дальность видимости в метрах или километрах. При видимости от 1 до 10 км при отсутствии осадков обычно наблюдается дымка, при ухудшении видимости до 1 км и менее - туман. В сухую погоду видимость может ухудшаться дымом, пылью или мглою.
Явления - указаны атмосферные явления, наблюдавшиеся в срок или в последний час перед сроком; фигурными скобками обозначены явления, наблюдавшиеся между сроками (за 1-3 часа до срока); квадратными скобками обозначены град или гололедные отложения с указанием их диаметра в мм.
Облачность - указаны через наклонную черту общая и нижняя облачность в баллах и высота нижней границы облаков в метрах; квадратными скобками обозначены формы облаков: Ci - перистые, Cs - перисто-слоистые, Cc - перисто-кучевые, Ac - высококучевые, As - высокослоистые, Sc - слоисто-кучевые, Ns - слоисто-дождевые, Cu - кучевые, Cb - кучево-дождевые. Подробнее классификацию облаков см. в Атласе облаков (PDF).
T - Температура воздуха - температура, измеренная на высоте 2 м над землей.
Td - Температура точки росы - температура, при понижении до которой содержащийся в воздухе водяной пар достигнет насыщения.
f - Относительная влажность воздуха - влажноcть воздуха, измеренная на высоте 2 м над землей.
Te - Эффективная температура - температура, которую ощущает одетый по сезону человек в тени. Характеристика душности погоды. При расчете учитывается влияние влажности воздуха и скорости ветра на теплоощущения человека.
Tes - Эффективная температура на солнце - температура, которую ощущает человек, с поправкой на солнечный нагрев. Характеристика знойности погоды. Зависит от высоты солнца над горизонтом, облачности и скорости ветра. Ночью, в пасмурную погоду, а также при ветре 12 м/с и более поправка равна нулю.
P - Атмосферное давление - приведенное к уровню моря атмосферное давление.
Po - Атмосферное давление - измеренное на уровне метеостанции атмосферное давление.
Tmin - Минимальная температура - минимум температуры воздуха на высоте 2 м над землей.
Tmax - Максимальная температура - максимум температуры воздуха на высоте 2 м над землей.
R - Количество осадков - Количество выпавших осадков за период времени, мм. При наведении курсора мыши на число - период времени, за который выпало указанное количество осадков.
R24 - Количество осадков - Количество выпавших осадков за 24 часа, мм.
S - Снежный покров - Высота снежного покрова, см. При наведении курсора мыши на число - состояние снежного покрова и степень покрытия местности в баллах.